Weather History for Custer, SD

Change the Weather History Date:

Thursday, September 4, 2014

  Actual Average Record
Temperature  
Mean Temperature 57 °F 59 °F  
Max Temperature 68 °F 73 °F 92 °F (1978)
Min Temperature 46 °F 46 °F 22 °F (1961)
Degree Days  
Heating Degree Days 8 6  
Month to date heating degree days 26 24  
Since 1 July heating degree days 157 178  
Cooling Degree Days 0 1  
Month to date cooling degree days 2 4  
Year to date cooling degree days 136 170  
Growing Degree Days 7 (Base 50)    
Moisture  
Dew Point 35 °F    
Average Humidity 47    
Maximum Humidity 66    
Minimum Humidity 27    
Precipitation  
Precipitation 0.00 in 0.07 in 0.50 in (1951)
Month to date precipitation T 0.27  
Year to date precipitation 14.51 15.19  
Sea Level Pressure  
Sea Level Pressure 29.92 in    
Wind  
Wind Speed 6 mph (NNE)    
Max Wind Speed 15 mph    
Max Gust Speed 21 mph    
Visibility 10 miles    
Events      
T = Trace of Precipitation, MM = Missing Value Source: NWS Daily Summary

Daily Weather History Graph

Daily Weather History Graph

Search for Another Location

Airport:

Trip Planner

Search our weather history database for the weather conditions in past years. The results will help you decide how hot, cold, wet, or windy it might be!

Date:

Astronomy

Sep. 04, 2014 Rise Set
Actual Time 6:21 AM MDT 7:24 PM MDT
Civil Twilight 5:52 AM MDT 7:53 PM MDT
Nautical Twilight 5:16 AM MDT 8:28 PM MDT
Astronomical Twilight 4:39 AM MDT 9:05 PM MDT
Moon 4:10 PM MDT (9/4) 1:08 AM MDT (9/4)
Length of Visible Light 14h 01m
Length of Day
13h 03m
Waxing Gibbous, 75% of the Moon is Illuminated
Sep 4
Waxing Gibbous
Sep 8
Full
Sep 15
Last Quarter
Sep 24
New
Oct 1
First Quarter

Hourly Weather History & Observations

Time (MDT) Temp. Dew Point Humidity Pressure Visibility Wind Dir Wind Speed Gust Speed Precip Events Conditions
12:53 AM 62.1 °F 42.1 °F 48% 29.62 in 10.0 mi NNW 9.2 mph 16.1 mph N/A   Partly Cloudy
1:53 AM 59.0 °F 42.1 °F 53% 29.68 in 10.0 mi ENE 6.9 mph - N/A   Clear
2:53 AM 57.0 °F 37.9 °F 49% 29.72 in 10.0 mi NNE 10.4 mph - N/A   Clear
3:53 AM 54.0 °F 28.9 °F 38% 29.75 in 10.0 mi North 10.4 mph 19.6 mph N/A   Partly Cloudy
4:53 AM 52.0 °F 26.1 °F 37% 29.79 in 10.0 mi NNW 10.4 mph - N/A   Partly Cloudy
5:53 AM 51.1 °F 27.0 °F 39% 29.79 in 10.0 mi North 8.1 mph - N/A   Clear
6:53 AM 51.1 °F 28.9 °F 43% 29.80 in 10.0 mi Variable 5.8 mph - N/A   Clear
7:53 AM 54.0 °F 30.9 °F 41% 29.83 in 10.0 mi NNW 5.8 mph - N/A   Clear
8:53 AM 57.0 °F 32.0 °F 39% 29.85 in 10.0 mi Variable 4.6 mph - N/A   Clear
9:53 AM 64.0 °F 33.1 °F 31% 29.86 in 10.0 mi West 9.2 mph - N/A   Clear
10:53 AM 64.9 °F 34.0 °F 32% 29.88 in 10.0 mi Variable 5.8 mph - N/A   Clear
11:53 AM 66.0 °F 35.1 °F 32% 29.89 in 10.0 mi Variable 3.5 mph - N/A   Scattered Clouds
12:53 PM 61.0 °F 27.0 °F 27% 29.94 in 10.0 mi NW 11.5 mph 19.6 mph N/A   Scattered Clouds
1:53 PM 64.9 °F 34.0 °F 32% 29.94 in 10.0 mi Variable 3.5 mph - N/A   Clear
2:53 PM 66.9 °F 36.0 °F 32% 29.94 in 10.0 mi NNE 4.6 mph - N/A   Clear
3:53 PM 64.0 °F 41.0 °F 43% 29.98 in 10.0 mi SE 8.1 mph - N/A   Clear
4:53 PM 62.1 °F 41.0 °F 46% 30.01 in 10.0 mi ESE 12.7 mph 20.7 mph N/A   Mostly Cloudy
5:53 PM 59.0 °F 41.0 °F 51% 30.04 in 10.0 mi East 5.8 mph - N/A   Clear
6:53 PM 55.9 °F 41.0 °F 57% 30.08 in 10.0 mi ESE 5.8 mph - N/A   Clear
7:53 PM 53.1 °F 39.9 °F 61% 30.11 in 10.0 mi Calm Calm - N/A   Clear
8:53 PM 50.0 °F 39.0 °F 66% 30.15 in 10.0 mi North 3.5 mph - N/A   Clear
9:53 PM 48.9 °F 36.0 °F 61% 30.15 in 10.0 mi North 3.5 mph - N/A   Clear
10:53 PM 48.0 °F 35.1 °F 61% 30.15 in 10.0 mi NNE 3.5 mph - N/A   Clear
11:53 PM 46.9 °F 35.1 °F 63% 30.16 in 10.0 mi North 5.8 mph - N/A   Clear